Location: Shenandoah County Park
(38.9356°N, 78.4524°W)
Time: 13:05:21
(UTC-05:00)

Vanguard 2 Rocket - All Passes

Search period start: 07 February 2023 00:00
Search period end: 17 February 2023 00:00
Orbit: 556 x 3318 km, 32.9° (Epoch: 06 February)

Date Brightness Start Highest point End Pass type
(mag) Time Alt. Az. Time Alt. Az. Time Alt. Az.
07 Feb - 07:48:40 10° SSW 07:55:31 24° SSE 08:00:13 10° ESE daylight
07 Feb - 10:02:43 10° WSW 10:08:33 39° S 10:12:36 10° ESE daylight
07 Feb - 12:16:55 10° WSW 12:20:52 32° SSW 12:24:24 10° SE daylight
07 Feb - 14:31:36 10° SW 14:33:02 12° SSW 14:34:32 10° S daylight
08 Feb - 06:47:36 10° SSW 06:54:52 21° SSE 07:00:00 10° ESE visible
08 Feb - 09:01:19 10° SW 09:08:23 37° S 09:12:56 10° ESE daylight
08 Feb - 11:16:05 10° WSW 11:20:58 39° S 11:24:44 10° ESE daylight
08 Feb - 13:30:24 10° WSW 13:33:02 17° SSW 13:35:43 10° SSE daylight
09 Feb - 05:46:53 10° S 05:53:56 17° SSE 05:59:14 10° ESE visible
09 Feb - 07:59:40 10° SW 08:07:59 34° SSE 08:13:13 10° ESE daylight
09 Feb - 10:14:51 10° WSW 10:20:57 44° S 10:25:07 10° ESE daylight
09 Feb - 12:29:31 10° WSW 12:33:09 24° SSW 12:36:24 10° SE daylight
10 Feb - 04:47:03 10° S 04:52:45 14° SSE 04:57:25 10° SE visible
10 Feb - 06:57:54 10° SW 07:07:20 31° SSE 07:13:18 10° ESE daylight
10 Feb - 09:13:11 10° WSW 09:20:47 45° S 09:25:31 10° ESE daylight
10 Feb - 11:28:29 10° W 11:33:17 34° SSW 11:36:58 10° SE daylight
11 Feb - 05:56:14 10° SSW 06:06:23 27° SSE 06:13:06 10° ESE visible
11 Feb - 08:11:10 10° WSW 08:20:23 44° S 08:25:53 10° E daylight
11 Feb - 10:27:05 10° WSW 10:33:18 44° S 10:37:30 10° ESE daylight
11 Feb - 12:42:27 10° WSW 12:45:19 17° SSW 12:47:55 10° SSE daylight
12 Feb - 04:54:55 10° SSW 05:05:09 22° SSE 05:12:22 10° ESE visible
12 Feb - 07:08:55 10° SW 07:19:44 41° SSE 07:26:08 10° E daylight
12 Feb - 09:25:15 10° WSW 09:33:08 50° S 09:37:59 10° ESE daylight
12 Feb - 11:41:00 10° W 11:45:28 27° SSW 11:48:58 10° SE daylight
13 Feb - 03:54:24 10° S 04:03:39 18° SSE 04:10:49 10° ESE visible
13 Feb - 06:06:38 10° SW 06:18:45 37° SSE 06:26:09 10° E visible
13 Feb - 08:22:59 10° WSW 08:32:44 52° S 08:38:23 10° ESE daylight
13 Feb - 10:39:23 10° W 10:45:33 39° SSW 10:49:43 10° SE daylight
14 Feb - 02:55:37 10° SSE 03:01:56 13° SE 03:07:26 10° ESE visible
14 Feb - 05:04:33 10° SSW 05:17:27 32° SSE 05:25:49 10° E visible
14 Feb - 07:20:23 10° WSW 07:32:02 51° S 07:38:42 10° E daylight
14 Feb - 09:37:24 10° W 09:45:25 49° S 09:50:19 10° ESE daylight
14 Feb - 11:53:47 10° WSW 11:57:29 19° SSW 12:00:31 10° SSE daylight
15 Feb - 04:02:56 10° SSW 04:15:53 27° SSE 04:24:59 10° E visible
15 Feb - 06:17:39 10° SW 06:31:02 47° SSE 06:38:49 10° E visible
15 Feb - 08:34:58 10° WSW 08:45:02 56° S 08:50:48 10° ESE daylight
15 Feb - 10:51:48 10° W 10:57:39 31° SSW 11:01:42 10° SE daylight
16 Feb - 03:02:08 10° S 03:14:05 21° SSE 03:23:19 10° ESE visible
16 Feb - 05:15:01 10° SW 05:29:41 42° SSE 05:38:40 10° E visible
16 Feb - 07:32:09 10° WSW 07:44:19 58° S 07:51:08 10° E daylight
16 Feb - 09:49:37 10° W 09:57:36 44° SSW 10:02:30 10° SE daylight
16 Feb - 12:07:28 10° WSW 12:09:19 12° SW 12:10:59 10° SSW daylight
